contact:dominique.lefevre@mio.osupytheas.fr, maurice.libes@osupytheas.fr, didier.mallarino@osupytheas.fr
Project:EMSO http://www.emso-fr.org/EMSO-France
Depth: 2436.0 m
Title:EMSO Ligure Ouest : Data MII capteur MICROCAT
DateTime_Computer,Latitude,Longitude,Temperature,Conductivity,Pressure,DateTime_Instrument
DateTime_Computer,Latitude,Longitude,degC,S m-1,dbar,DateTime_Instrument
2022-07-25T00:00:40Z,42.805,6.029,13.3006,4.60039,2470.591,2022-7-25T02:02:27Z
2022-07-25T00:03:43Z,42.805,6.029,13.3006,4.60041,2470.567,2022-7-25T02:05:30Z
2022-07-25T00:06:46Z,42.805,6.029,13.3006,4.60049,2470.563,2022-7-25T02:08:33Z
2022-07-25T00:09:49Z,42.805,6.029,13.3004,4.60040,2470.567,2022-7-25T02:11:36Z
2022-07-25T00:12:52Z,42.805,6.029,13.3009,4.60041,2470.614,2022-7-25T02:14:39Z
2022-07-25T00:15:55Z,42.805,6.029,13.3008,4.60041,2470.53,2022-7-25T02:17:42Z
2022-07-25T00:18:58Z,42.805,6.029,13.3006,4.60042,2470.53,2022-7-25T02:20:46Z
2022-07-25T00:22:01Z,42.805,6.029,13.3004,4.60043,2470.567,2022-7-25T02:23:49Z
2022-07-25T00:25:05Z,42.805,6.029,13.3005,4.60043,2470.53,2022-7-25T02:26:52Z
2022-07-25T00:28:08Z,42.805,6.029,13.3003,4.60042,2470.577,2022-7-25T02:29:55Z
2022-07-25T00:31:11Z,42.805,6.029,13.3003,4.60042,2470.567,2022-7-25T02:32:58Z
2022-07-25T00:34:14Z,42.805,6.029,13.3004,4.60042,2470.553,2022-7-25T02:36:01Z
2022-07-25T00:37:17Z,42.805,6.029,13.3006,4.60044,2470.53,2022-7-25T02:39:04Z
2022-07-25T00:40:20Z,42.805,6.029,13.3005,4.60044,2470.553,2022-7-25T02:42:07Z
2022-07-25T00:43:23Z,42.805,6.029,13.3010,4.60049,2470.539,2022-7-25T02:45:10Z
2022-07-25T00:46:26Z,42.805,6.029,13.3009,4.60045,2470.553,2022-7-25T02:48:14Z
2022-07-25T00:49:29Z,42.805,6.029,13.3007,4.60044,2470.553,2022-7-25T02:51:17Z
2022-07-25T00:52:33Z,42.805,6.029,13.3004,4.60040,2470.577,2022-7-25T02:54:20Z
2022-07-25T00:55:36Z,42.805,6.029,13.3008,4.60040,2470.591,2022-7-25T02:57:23Z
2022-07-25T00:58:39Z,42.805,6.029,13.3005,4.60045,2470.577,2022-7-25T03:00:26Z
2022-07-25T01:01:42Z,42.805,6.029,13.3006,4.60041,2470.553,2022-7-25T03:03:29Z
2022-07-25T01:04:45Z,42.805,6.029,13.3006,4.60044,2470.577,2022-7-25T03:06:32Z
2022-07-25T01:07:48Z,42.805,6.029,13.3005,4.60042,2470.577,2022-7-25T03:09:35Z
2022-07-25T01:10:51Z,42.805,6.029,13.3004,4.60044,2470.553,2022-7-25T03:12:39Z
2022-07-25T01:13:54Z,42.805,6.029,13.3009,4.60042,2470.6,2022-7-25T03:15:42Z
2022-07-25T01:16:58Z,42.805,6.029,13.3006,4.60042,2470.553,2022-7-25T03:18:45Z
2022-07-25T01:20:01Z,42.805,6.029,13.3004,4.60043,2470.577,2022-7-25T03:21:48Z
2022-07-25T01:23:04Z,42.805,6.029,13.3006,4.60046,2470.577,2022-7-25T03:24:51Z
2022-07-25T01:26:07Z,42.805,6.029,13.3008,4.60042,2470.577,2022-7-25T03:27:54Z
2022-07-25T01:29:10Z,42.805,6.029,13.3005,4.60042,2470.577,2022-7-25T03:30:57Z
2022-07-25T01:32:13Z,42.805,6.029,13.3004,4.60042,2470.591,2022-7-25T03:34:00Z
2022-07-25T01:35:16Z,42.805,6.029,13.3004,4.60042,2470.577,2022-7-25T03:37:04Z
2022-07-25T01:38:19Z,42.805,6.029,13.3006,4.60043,2470.577,2022-7-25T03:40:07Z
2022-07-25T01:41:23Z,42.805,6.029,13.3006,4.60043,2470.553,2022-7-25T03:43:10Z
2022-07-25T01:44:26Z,42.805,6.029,13.3006,4.60043,2470.563,2022-7-25T03:46:13Z
2022-07-25T01:47:29Z,42.805,6.029,13.3004,4.60043,2470.614,2022-7-25T03:49:16Z
2022-07-25T01:50:32Z,42.805,6.029,13.3001,4.60042,2470.577,2022-7-25T03:52:19Z
2022-07-25T01:53:35Z,42.805,6.029,13.3004,4.60044,2470.567,2022-7-25T03:55:22Z
2022-07-25T01:56:38Z,42.805,6.029,13.3007,4.60043,2470.577,2022-7-25T03:58:25Z
2022-07-25T01:59:41Z,42.805,6.029,13.3004,4.60042,2470.577,2022-7-25T04:01:29Z
2022-07-25T02:02:44Z,42.805,6.029,13.3006,4.60042,2470.577,2022-7-25T04:04:32Z
2022-07-25T02:05:48Z,42.805,6.029,13.3004,4.60041,2470.6,2022-7-25T04:07:35Z
2022-07-25T02:08:51Z,42.805,6.029,13.3005,4.60042,2470.577,2022-7-25T04:10:38Z
2022-07-25T02:11:54Z,42.805,6.029,13.3005,4.60041,2470.6,2022-7-25T04:13:41Z
2022-07-25T02:14:57Z,42.805,6.029,13.3006,4.60043,2470.6,2022-7-25T04:16:44Z
2022-07-25T02:18:00Z,42.805,6.029,13.3005,4.60044,2470.591,2022-7-25T04:19:47Z
2022-07-25T02:21:03Z,42.805,6.029,13.3004,4.60042,2470.577,2022-7-25T04:22:50Z
2022-07-25T02:24:06Z,42.805,6.029,13.3009,4.60044,2470.577,2022-7-25T04:25:53Z
2022-07-25T02:27:09Z,42.805,6.029,13.3009,4.60044,2470.577,2022-7-25T04:28:57Z
2022-07-25T02:30:12Z,42.805,6.029,13.3006,4.60042,2470.614,2022-7-25T04:32:00Z
2022-07-25T02:33:16Z,42.805,6.029,13.3009,4.60042,2470.614,2022-7-25T04:35:03Z
2022-07-25T02:36:19Z,42.805,6.029,13.3009,4.60043,2470.591,2022-7-25T04:38:06Z
2022-07-25T02:39:22Z,42.805,6.029,13.3004,4.60042,2470.563,2022-7-25T04:41:09Z
2022-07-25T02:42:25Z,42.805,6.029,13.3006,4.60043,2470.6,2022-7-25T04:44:12Z
2022-07-25T02:45:28Z,42.805,6.029,13.3006,4.60044,2470.6,2022-7-25T04:47:15Z
2022-07-25T02:48:31Z,42.805,6.029,13.3006,4.60044,2470.614,2022-7-25T04:50:18Z
2022-07-25T02:51:34Z,42.805,6.029,13.3007,4.60044,2470.6,2022-7-25T04:53:22Z
2022-07-25T02:54:37Z,42.805,6.029,13.3006,4.60043,2470.6,2022-7-25T04:56:25Z
2022-07-25T02:57:41Z,42.805,6.029,13.3007,4.60043,2470.614,2022-7-25T04:59:28Z
2022-07-25T03:00:44Z,42.805,6.029,13.3006,4.60042,2470.591,2022-7-25T05:02:31Z
2022-07-25T03:03:47Z,42.805,6.029,13.3005,4.60043,2470.6,2022-7-25T05:05:34Z
2022-07-25T03:06:50Z,42.805,6.029,13.3006,4.60045,2470.624,2022-7-25T05:08:37Z
2022-07-25T03:09:53Z,42.805,6.029,13.3004,4.60043,2470.624,2022-7-25T05:11:40Z
2022-07-25T03:12:56Z,42.805,6.029,13.3006,4.60044,2470.591,2022-7-25T05:14:43Z
2022-07-25T03:15:59Z,42.805,6.029,13.3007,4.60044,2470.624,2022-7-25T05:17:47Z
2022-07-25T03:19:02Z,42.805,6.029,13.3006,4.60044,2470.577,2022-7-25T05:20:50Z
2022-07-25T03:22:06Z,42.805,6.029,13.3003,4.60044,2470.577,2022-7-25T05:23:53Z
2022-07-25T03:25:09Z,42.805,6.029,13.3005,4.60041,2470.577,2022-7-25T05:26:56Z
2022-07-25T03:28:12Z,42.805,6.029,13.3009,4.60042,2470.614,2022-7-25T05:29:59Z
2022-07-25T03:31:15Z,42.805,6.029,13.3006,4.60044,2470.637,2022-7-25T05:33:02Z
2022-07-25T03:34:18Z,42.805,6.029,13.3010,4.60042,2470.61,2022-7-25T05:36:05Z
2022-07-25T03:37:21Z,42.805,6.029,13.3008,4.60043,2470.624,2022-7-25T05:39:08Z
2022-07-25T03:40:24Z,42.805,6.029,13.3006,4.60042,2470.661,2022-7-25T05:42:12Z
2022-07-25T03:43:27Z,42.805,6.029,13.3003,4.60043,2470.661,2022-7-25T05:45:15Z
2022-07-25T03:46:30Z,42.805,6.029,13.3006,4.60044,2470.637,2022-7-25T05:48:18Z
2022-07-25T03:49:34Z,42.805,6.029,13.3006,4.60044,2470.614,2022-7-25T05:51:21Z
2022-07-25T03:52:37Z,42.805,6.029,13.3006,4.60042,2470.637,2022-7-25T05:54:24Z
2022-07-25T03:55:40Z,42.805,6.029,13.3007,4.60042,2470.637,2022-7-25T05:57:27Z
2022-07-25T03:58:43Z,42.805,6.029,13.3007,4.60044,2470.624,2022-7-25T06:00:30Z
2022-07-25T04:01:46Z,42.805,6.029,13.3010,4.60045,2470.6,2022-7-25T06:03:33Z
2022-07-25T04:04:49Z,42.805,6.029,13.3006,4.60044,2470.577,2022-7-25T06:06:37Z
2022-07-25T04:07:52Z,42.805,6.029,13.3006,4.60043,2470.637,2022-7-25T06:09:40Z
2022-07-25T04:10:55Z,42.805,6.029,13.3006,4.60043,2470.614,2022-7-25T06:12:43Z
2022-07-25T04:13:59Z,42.805,6.029,13.3007,4.60044,2470.661,2022-7-25T06:15:46Z
2022-07-25T04:17:02Z,42.805,6.029,13.3006,4.60044,2470.637,2022-7-25T06:18:49Z
2022-07-25T04:20:05Z,42.805,6.029,13.3005,4.60042,2470.6,2022-7-25T06:21:52Z
2022-07-25T04:23:08Z,42.805,6.029,13.3009,4.60043,2470.646,2022-7-25T06:24:55Z
2022-07-25T04:26:11Z,42.805,6.029,13.3009,4.60045,2470.661,2022-7-25T06:27:58Z
2022-07-25T04:29:14Z,42.805,6.029,13.3010,4.60042,2470.624,2022-7-25T06:31:02Z
2022-07-25T04:32:17Z,42.805,6.029,13.3009,4.60042,2470.624,2022-7-25T06:34:05Z
2022-07-25T04:35:20Z,42.805,6.029,13.3006,4.60042,2470.661,2022-7-25T06:37:08Z
2022-07-25T04:38:24Z,42.805,6.029,13.3010,4.60042,2470.637,2022-7-25T06:40:11Z
2022-07-25T04:41:27Z,42.805,6.029,13.3006,4.60043,2470.67,2022-7-25T06:43:14Z
2022-07-25T04:44:30Z,42.805,6.029,13.3004,4.60043,2470.646,2022-7-25T06:46:17Z
2022-07-25T04:47:33Z,42.805,6.029,13.3004,4.60043,2470.646,2022-7-25T06:49:20Z
2022-07-25T04:50:36Z,42.805,6.029,13.3009,4.60043,2470.624,2022-7-25T06:52:23Z
2022-07-25T04:53:39Z,42.805,6.029,13.3009,4.60042,2470.67,2022-7-25T06:55:26Z
2022-07-25T04:56:42Z,42.805,6.029,13.3003,4.60043,2470.6,2022-7-25T06:58:30Z
2022-07-25T04:59:45Z,42.805,6.029,13.3008,4.60044,2470.624,2022-7-25T07:01:33Z
2022-07-25T05:02:49Z,42.805,6.029,13.3006,4.60044,2470.624,2022-7-25T07:04:36Z
2022-07-25T05:05:52Z,42.805,6.029,13.3004,4.60043,2470.614,2022-7-25T07:07:39Z
2022-07-25T05:08:55Z,42.805,6.029,13.3008,4.60043,2470.624,2022-7-25T07:10:42Z
2022-07-25T05:11:58Z,42.805,6.029,13.3007,4.60043,2470.661,2022-7-25T07:13:45Z
2022-07-25T05:15:01Z,42.805,6.029,13.3009,4.60044,2470.624,2022-7-25T07:16:48Z
2022-07-25T05:18:04Z,42.805,6.029,13.3007,4.60042,2470.637,2022-7-25T07:19:51Z
2022-07-25T05:21:07Z,42.805,6.029,13.3004,4.60043,2470.646,2022-7-25T07:22:55Z
2022-07-25T05:24:10Z,42.805,6.029,13.3009,4.60043,2470.624,2022-7-25T07:25:58Z
2022-07-25T05:27:14Z,42.805,6.029,13.3007,4.60045,2470.624,2022-7-25T07:29:01Z
2022-07-25T05:30:17Z,42.805,6.029,13.3008,4.60043,2470.637,2022-7-25T07:32:04Z
2022-07-25T05:33:20Z,42.805,6.029,13.3004,4.60044,2470.646,2022-7-25T07:35:07Z
2022-07-25T05:36:23Z,42.805,6.029,13.3009,4.60041,2470.6,2022-7-25T07:38:10Z
2022-07-25T05:39:26Z,42.805,6.029,13.3004,4.60045,2470.624,2022-7-25T07:41:13Z
2022-07-25T05:42:29Z,42.805,6.029,13.3010,4.60042,2470.646,2022-7-25T07:44:16Z
2022-07-25T05:45:32Z,42.805,6.029,13.3009,4.60042,2470.624,2022-7-25T07:47:20Z
2022-07-25T05:48:35Z,42.805,6.029,13.3003,4.60044,2470.6,2022-7-25T07:50:23Z
2022-07-25T05:51:38Z,42.805,6.029,13.3006,4.60041,2470.646,2022-7-25T07:53:26Z
2022-07-25T05:54:42Z,42.805,6.029,13.3009,4.60043,2470.624,2022-7-25T07:56:29Z
2022-07-25T05:57:45Z,42.805,6.029,13.3007,4.60042,2470.646,2022-7-25T07:59:32Z
2022-07-25T06:00:48Z,42.805,6.029,13.3007,4.60043,2470.6,2022-7-25T08:02:35Z
2022-07-25T06:03:51Z,42.805,6.029,13.3007,4.60042,2470.6,2022-7-25T08:05:38Z
2022-07-25T06:06:54Z,42.805,6.029,13.3004,4.60042,2470.614,2022-7-25T08:08:41Z
2022-07-25T06:09:57Z,42.805,6.029,13.3005,4.60042,2470.637,2022-7-25T08:11:44Z
2022-07-25T06:13:00Z,42.805,6.029,13.3006,4.60042,2470.661,2022-7-25T08:14:48Z
2022-07-25T06:16:03Z,42.805,6.029,13.3006,4.60044,2470.637,2022-7-25T08:17:51Z
2022-07-25T06:19:07Z,42.805,6.029,13.3005,4.60042,2470.637,2022-7-25T08:20:54Z
2022-07-25T06:22:10Z,42.805,6.029,13.3006,4.60042,2470.646,2022-7-25T08:23:57Z
2022-07-25T06:25:13Z,42.805,6.029,13.3004,4.60041,2470.6,2022-7-25T08:27:00Z
2022-07-25T06:28:16Z,42.805,6.029,13.3006,4.60041,2470.6,2022-7-25T08:30:03Z
2022-07-25T06:31:19Z,42.805,6.029,13.3002,4.60042,2470.6,2022-7-25T08:33:06Z
2022-07-25T06:34:22Z,42.805,6.029,13.3005,4.60043,2470.637,2022-7-25T08:36:09Z
2022-07-25T06:37:25Z,42.805,6.029,13.3006,4.60044,2470.614,2022-7-25T08:39:13Z
2022-07-25T06:40:28Z,42.805,6.029,13.3010,4.60042,2470.624,2022-7-25T08:42:16Z
2022-07-25T06:43:32Z,42.805,6.029,13.3005,4.60042,2470.577,2022-7-25T08:45:19Z
2022-07-25T06:46:35Z,42.805,6.029,13.3006,4.60042,2470.614,2022-7-25T08:48:22Z
2022-07-25T06:49:38Z,42.805,6.029,13.3004,4.60043,2470.591,2022-7-25T08:51:25Z
2022-07-25T06:52:41Z,42.805,6.029,13.3005,4.60041,2470.591,2022-7-25T08:54:28Z
2022-07-25T06:55:44Z,42.805,6.029,13.3007,4.60042,2470.6,2022-7-25T08:57:31Z
2022-07-25T06:58:47Z,42.805,6.029,13.3002,4.60042,2470.6,2022-7-25T09:00:34Z
2022-07-25T07:01:50Z,42.805,6.029,13.3008,4.60041,2470.577,2022-7-25T09:03:38Z
2022-07-25T07:04:53Z,42.805,6.029,13.3006,4.60042,2470.577,2022-7-25T09:06:41Z
2022-07-25T07:07:56Z,42.805,6.029,13.3008,4.60041,2470.646,2022-7-25T09:09:44Z
2022-07-25T07:11:00Z,42.805,6.029,13.3002,4.60044,2470.591,2022-7-25T09:12:47Z
2022-07-25T07:14:03Z,42.805,6.029,13.3006,4.60041,2470.6,2022-7-25T09:15:50Z
2022-07-25T07:17:06Z,42.805,6.029,13.3005,4.60042,2470.591,2022-7-25T09:18:53Z
2022-07-25T07:20:09Z,42.805,6.029,13.3005,4.60042,2470.577,2022-7-25T09:21:56Z
2022-07-25T07:23:12Z,42.805,6.029,13.3009,4.60043,2470.591,2022-7-25T09:24:59Z
2022-07-25T07:26:15Z,42.805,6.029,13.3011,4.60042,2470.591,2022-7-25T09:28:02Z
2022-07-25T07:29:18Z,42.805,6.029,13.3004,4.60042,2470.6,2022-7-25T09:31:06Z
2022-07-25T07:32:21Z,42.805,6.029,13.3004,4.60041,2470.591,2022-7-25T09:34:09Z
2022-07-25T07:35:25Z,42.805,6.029,13.3005,4.60044,2470.577,2022-7-25T09:37:12Z
2022-07-25T07:38:28Z,42.805,6.029,13.3005,4.60043,2470.553,2022-7-25T09:40:15Z
2022-07-25T07:41:31Z,42.805,6.029,13.3006,4.60044,2470.624,2022-7-25T09:43:18Z
2022-07-25T07:44:34Z,42.805,6.029,13.3004,4.60042,2470.577,2022-7-25T09:46:21Z
2022-07-25T07:47:37Z,42.805,6.029,13.3006,4.60042,2470.553,2022-7-25T09:49:24Z
2022-07-25T07:50:40Z,42.805,6.029,13.3006,4.60042,2470.6,2022-7-25T09:52:27Z
2022-07-25T07:53:43Z,42.805,6.029,13.3004,4.60042,2470.591,2022-7-25T09:55:31Z
2022-07-25T07:56:46Z,42.805,6.029,13.3007,4.60043,2470.591,2022-7-25T09:58:34Z
2022-07-25T07:59:50Z,42.805,6.029,13.3008,4.60040,2470.567,2022-7-25T10:01:37Z
2022-07-25T08:02:53Z,42.805,6.029,13.3008,4.60043,2470.577,2022-7-25T10:04:40Z
2022-07-25T08:05:56Z,42.805,6.029,13.3002,4.60043,2470.563,2022-7-25T10:07:43Z
2022-07-25T08:08:59Z,42.805,6.029,13.3005,4.60043,2470.553,2022-7-25T10:10:46Z
2022-07-25T08:12:02Z,42.805,6.029,13.3004,4.60040,2470.577,2022-7-25T10:13:49Z
2022-07-25T08:15:05Z,42.805,6.029,13.3006,4.60044,2470.567,2022-7-25T10:16:52Z
2022-07-25T08:18:08Z,42.805,6.029,13.3009,4.60043,2470.591,2022-7-25T10:19:56Z
2022-07-25T08:21:11Z,42.805,6.029,13.3006,4.60042,2470.577,2022-7-25T10:22:59Z
2022-07-25T08:24:15Z,42.805,6.029,13.3006,4.60044,2470.591,2022-7-25T10:26:02Z
2022-07-25T08:27:18Z,42.805,6.029,13.3005,4.60041,2470.591,2022-7-25T10:29:05Z
2022-07-25T08:30:21Z,42.805,6.029,13.3009,4.60044,2470.553,2022-7-25T10:32:08Z
2022-07-25T08:33:24Z,42.805,6.029,13.3001,4.60043,2470.553,2022-7-25T10:35:11Z
2022-07-25T08:36:27Z,42.805,6.029,13.3009,4.60042,2470.553,2022-7-25T10:38:14Z
2022-07-25T08:39:30Z,42.805,6.029,13.3004,4.60043,2470.553,2022-7-25T10:41:17Z
2022-07-25T08:42:33Z,42.805,6.029,13.3005,4.60041,2470.591,2022-7-25T10:44:21Z
2022-07-25T08:45:36Z,42.805,6.029,13.3006,4.60042,2470.577,2022-7-25T10:47:24Z
2022-07-25T08:48:40Z,42.805,6.029,13.3008,4.60042,2470.577,2022-7-25T10:50:27Z
2022-07-25T08:51:43Z,42.805,6.029,13.3009,4.60042,2470.553,2022-7-25T10:53:30Z
2022-07-25T08:54:46Z,42.805,6.029,13.3004,4.60042,2470.577,2022-7-25T10:56:33Z
2022-07-25T08:57:49Z,42.805,6.029,13.3004,4.60044,2470.591,2022-7-25T10:59:36Z
2022-07-25T09:00:52Z,42.805,6.029,13.3006,4.60043,2470.577,2022-7-25T11:02:39Z
2022-07-25T09:03:55Z,42.805,6.029,13.3006,4.60041,2470.553,2022-7-25T11:05:42Z
2022-07-25T09:06:58Z,42.805,6.029,13.3006,4.60041,2470.567,2022-7-25T11:08:46Z
2022-07-25T09:10:01Z,42.805,6.029,13.3008,4.60043,2470.553,2022-7-25T11:11:49Z
2022-07-25T09:13:05Z,42.805,6.029,13.3008,4.60041,2470.516,2022-7-25T11:14:52Z
2022-07-25T09:16:08Z,42.805,6.029,13.3004,4.60042,2470.591,2022-7-25T11:17:55Z
2022-07-25T09:19:11Z,42.805,6.029,13.3013,4.60043,2470.53,2022-7-25T11:20:58Z
2022-07-25T09:22:14Z,42.805,6.029,13.3004,4.60043,2470.544,2022-7-25T11:24:01Z
2022-07-25T09:25:17Z,42.805,6.029,13.3004,4.60043,2470.553,2022-7-25T11:27:04Z
2022-07-25T09:28:20Z,42.805,6.029,13.3008,4.60042,2470.507,2022-7-25T11:30:07Z
2022-07-25T09:31:23Z,42.805,6.029,13.3001,4.60042,2470.553,2022-7-25T11:33:11Z
2022-07-25T09:34:26Z,42.805,6.029,13.3006,4.60042,2470.544,2022-7-25T11:36:14Z
2022-07-25T09:37:30Z,42.805,6.029,13.3004,4.60043,2470.507,2022-7-25T11:39:17Z
2022-07-25T09:40:33Z,42.805,6.029,13.3008,4.60042,2470.53,2022-7-25T11:42:20Z
2022-07-25T09:43:36Z,42.805,6.029,13.3009,4.60043,2470.544,2022-7-25T11:45:23Z
2022-07-25T09:46:39Z,42.805,6.029,13.3008,4.60043,2470.507,2022-7-25T11:48:26Z
2022-07-25T09:49:42Z,42.805,6.029,13.3002,4.60041,2470.544,2022-7-25T11:51:29Z
2022-07-25T09:52:45Z,42.805,6.029,13.3006,4.60043,2470.53,2022-7-25T11:54:32Z
2022-07-25T09:55:48Z,42.805,6.029,13.3007,4.60042,2470.507,2022-7-25T11:57:36Z
2022-07-25T09:58:51Z,42.805,6.029,13.3006,4.60042,2470.553,2022-7-25T12:00:39Z
2022-07-25T10:01:55Z,42.805,6.029,13.3004,4.60044,2470.567,2022-7-25T12:03:42Z
2022-07-25T10:04:58Z,42.805,6.029,13.3006,4.60043,2470.507,2022-7-25T12:06:45Z
2022-07-25T10:08:01Z,42.805,6.029,13.3006,4.60044,2470.53,2022-7-25T12:09:48Z
2022-07-25T10:11:04Z,42.805,6.029,13.3008,4.60042,2470.53,2022-7-25T12:12:51Z
2022-07-25T10:14:07Z,42.805,6.029,13.3007,4.60042,2470.544,2022-7-25T12:15:54Z
2022-07-25T10:17:10Z,42.805,6.029,13.3006,4.60042,2470.544,2022-7-25T12:18:57Z
2022-07-25T10:20:13Z,42.805,6.029,13.3010,4.60042,2470.497,2022-7-25T12:22:01Z
2022-07-25T10:23:16Z,42.805,6.029,13.3012,4.60040,2470.544,2022-7-25T12:25:04Z
2022-07-25T10:26:20Z,42.805,6.029,13.3004,4.60042,2470.52,2022-7-25T12:28:07Z
2022-07-25T10:29:23Z,42.805,6.029,13.3004,4.60040,2470.53,2022-7-25T12:31:10Z
2022-07-25T10:32:26Z,42.805,6.029,13.3006,4.60042,2470.53,2022-7-25T12:34:13Z
2022-07-25T10:35:29Z,42.805,6.029,13.3009,4.60042,2470.493,2022-7-25T12:37:16Z
2022-07-25T10:38:32Z,42.805,6.029,13.3008,4.60043,2470.507,2022-7-25T12:40:19Z
2022-07-25T10:41:35Z,42.805,6.029,13.3004,4.60042,2470.52,2022-7-25T12:43:23Z
2022-07-25T10:44:38Z,42.805,6.029,13.3002,4.60042,2470.53,2022-7-25T12:46:26Z
2022-07-25T10:47:42Z,42.805,6.029,13.3010,4.60044,2470.507,2022-7-25T12:49:29Z
2022-07-25T10:50:45Z,42.805,6.029,13.3006,4.60040,2470.544,2022-7-25T12:52:32Z
2022-07-25T10:53:48Z,42.805,6.029,13.3006,4.60046,2470.483,2022-7-25T12:55:35Z
2022-07-25T10:56:51Z,42.805,6.029,13.3005,4.60041,2470.46,2022-7-25T12:58:38Z
2022-07-25T10:59:54Z,42.805,6.029,13.3005,4.60040,2470.483,2022-7-25T13:01:41Z
2022-07-25T11:02:57Z,42.805,6.029,13.3006,4.60042,2470.507,2022-7-25T13:04:44Z
2022-07-25T11:06:00Z,42.805,6.029,13.3006,4.60042,2470.544,2022-7-25T13:07:48Z
2022-07-25T11:09:03Z,42.805,6.029,13.3008,4.60040,2470.507,2022-7-25T13:10:51Z
2022-07-25T11:12:07Z,42.805,6.029,13.3008,4.60043,2470.507,2022-7-25T13:13:54Z
2022-07-25T11:15:10Z,42.805,6.029,13.3006,4.60043,2470.52,2022-7-25T13:16:57Z
2022-07-25T11:18:13Z,42.805,6.029,13.3008,4.60041,2470.52,2022-7-25T13:20:00Z
2022-07-25T11:21:16Z,42.805,6.029,13.3007,4.60040,2470.507,2022-7-25T13:23:03Z
2022-07-25T11:24:19Z,42.805,6.029,13.3005,4.60040,2470.52,2022-7-25T13:26:06Z
2022-07-25T11:27:22Z,42.805,6.029,13.3007,4.60042,2470.53,2022-7-25T13:29:09Z
2022-07-25T11:30:25Z,42.805,6.029,13.3006,4.60044,2470.544,2022-7-25T13:32:13Z
2022-07-25T11:33:28Z,42.805,6.029,13.3007,4.60044,2470.507,2022-7-25T13:35:16Z
2022-07-25T11:36:32Z,42.805,6.029,13.3004,4.60044,2470.507,2022-7-25T13:38:19Z
2022-07-25T11:39:35Z,42.805,6.029,13.3006,4.60041,2470.507,2022-7-25T13:41:22Z
2022-07-25T11:42:38Z,42.805,6.029,13.3006,4.60041,2470.507,2022-7-25T13:44:25Z
2022-07-25T11:45:41Z,42.805,6.029,13.3008,4.60042,2470.507,2022-7-25T13:47:28Z
2022-07-25T11:48:44Z,42.805,6.029,13.3006,4.60043,2470.507,2022-7-25T13:50:31Z
2022-07-25T11:51:47Z,42.805,6.029,13.3009,4.60042,2470.507,2022-7-25T13:53:34Z
2022-07-25T11:54:50Z,42.805,6.029,13.3006,4.60042,2470.497,2022-7-25T13:56:38Z
2022-07-25T11:57:53Z,42.805,6.029,13.3004,4.60042,2470.507,2022-7-25T13:59:41Z
2022-07-25T12:00:57Z,42.805,6.029,13.3006,4.60041,2470.53,2022-7-25T14:02:44Z
2022-07-25T12:04:00Z,42.805,6.029,13.3008,4.60042,2470.507,2022-7-25T14:05:47Z
2022-07-25T12:07:03Z,42.805,6.029,13.3001,4.60042,2470.507,2022-7-25T14:08:50Z
2022-07-25T12:10:06Z,42.805,6.029,13.3006,4.60042,2470.507,2022-7-25T14:11:53Z
2022-07-25T12:13:09Z,42.805,6.029,13.3005,4.60042,2470.507,2022-7-25T14:14:56Z
2022-07-25T12:16:12Z,42.805,6.029,13.3007,4.60042,2470.507,2022-7-25T14:17:59Z
2022-07-25T12:19:15Z,42.805,6.029,13.3004,4.60042,2470.507,2022-7-25T14:21:03Z
2022-07-25T12:22:18Z,42.805,6.029,13.3004,4.60042,2470.507,2022-7-25T14:24:06Z
2022-07-25T12:25:22Z,42.805,6.029,13.3006,4.60043,2470.567,2022-7-25T14:27:09Z
2022-07-25T12:28:25Z,42.805,6.029,13.3007,4.60042,2470.507,2022-7-25T14:30:12Z
2022-07-25T12:31:28Z,42.805,6.029,13.3005,4.60043,2470.507,2022-7-25T14:33:15Z
2022-07-25T12:34:31Z,42.805,6.029,13.3005,4.60041,2470.507,2022-7-25T14:36:18Z
2022-07-25T12:37:34Z,42.805,6.029,13.3004,4.60045,2470.544,2022-7-25T14:39:21Z
2022-07-25T12:40:37Z,42.805,6.029,13.3004,4.60044,2470.52,2022-7-25T14:42:24Z
2022-07-25T12:43:40Z,42.805,6.029,13.3008,4.60044,2470.544,2022-7-25T14:45:28Z
2022-07-25T12:46:43Z,42.805,6.029,13.3006,4.60045,2470.53,2022-7-25T14:48:31Z
2022-07-25T12:49:47Z,42.805,6.029,13.3005,4.60043,2470.53,2022-7-25T14:51:34Z
2022-07-25T12:52:50Z,42.805,6.029,13.3008,4.60040,2470.544,2022-7-25T14:54:37Z
2022-07-25T12:55:53Z,42.805,6.029,13.3006,4.60041,2470.567,2022-7-25T14:57:40Z
2022-07-25T12:58:56Z,42.805,6.029,13.3005,4.60042,2470.544,2022-7-25T15:00:43Z
2022-07-25T13:01:59Z,42.805,6.029,13.3006,4.60039,2470.53,2022-7-25T15:03:46Z
2022-07-25T13:05:02Z,42.805,6.029,13.3006,4.60044,2470.53,2022-7-25T15:06:49Z
2022-07-25T13:08:05Z,42.805,6.029,13.3008,4.60044,2470.539,2022-7-25T15:09:53Z
2022-07-25T13:11:08Z,42.805,6.029,13.3006,4.60041,2470.553,2022-7-25T15:12:56Z
2022-07-25T13:14:12Z,42.805,6.029,13.3004,4.60043,2470.53,2022-7-25T15:15:59Z
2022-07-25T13:17:15Z,42.805,6.029,13.3006,4.60043,2470.507,2022-7-25T15:19:02Z
2022-07-25T13:20:18Z,42.805,6.029,13.3009,4.60044,2470.52,2022-7-25T15:22:05Z
2022-07-25T13:23:21Z,42.805,6.029,13.3009,4.60044,2470.544,2022-7-25T15:25:08Z
2022-07-25T13:26:24Z,42.805,6.029,13.3004,4.60042,2470.53,2022-7-25T15:28:11Z
2022-07-25T13:29:27Z,42.805,6.029,13.3009,4.60044,2470.53,2022-7-25T15:31:14Z
2022-07-25T13:32:30Z,42.805,6.029,13.3004,4.60043,2470.53,2022-7-25T15:34:18Z
2022-07-25T13:35:33Z,42.805,6.029,13.3006,4.60042,2470.553,2022-7-25T15:37:21Z
2022-07-25T13:38:37Z,42.805,6.029,13.3006,4.60046,2470.53,2022-7-25T15:40:24Z
2022-07-25T13:41:40Z,42.805,6.029,13.3004,4.60040,2470.553,2022-7-25T15:43:27Z
2022-07-25T13:44:43Z,42.805,6.029,13.3004,4.60042,2470.53,2022-7-25T15:46:30Z
2022-07-25T13:47:46Z,42.805,6.029,13.3004,4.60041,2470.53,2022-7-25T15:49:33Z
2022-07-25T13:50:49Z,42.805,6.029,13.3009,4.60043,2470.553,2022-7-25T15:52:36Z
2022-07-25T13:53:52Z,42.805,6.029,13.3007,4.60042,2470.553,2022-7-25T15:55:39Z
2022-07-25T13:56:55Z,42.805,6.029,13.3008,4.60041,2470.553,2022-7-25T15:58:43Z
2022-07-25T13:59:58Z,42.805,6.029,13.3005,4.60043,2470.567,2022-7-25T16:01:46Z
2022-07-25T14:03:02Z,42.805,6.029,13.3009,4.60042,2470.577,2022-7-25T16:04:49Z
2022-07-25T14:06:05Z,42.805,6.029,13.3010,4.60046,2470.577,2022-7-25T16:07:52Z
2022-07-25T14:09:08Z,42.805,6.029,13.3006,4.60041,2470.577,2022-7-25T16:10:55Z
2022-07-25T14:12:11Z,42.805,6.029,13.3006,4.60043,2470.567,2022-7-25T16:13:58Z
2022-07-25T14:15:14Z,42.805,6.029,13.3005,4.60045,2470.577,2022-7-25T16:17:01Z
2022-07-25T14:18:17Z,42.805,6.029,13.3009,4.60043,2470.577,2022-7-25T16:20:05Z
2022-07-25T14:21:20Z,42.805,6.029,13.3008,4.60043,2470.577,2022-7-25T16:23:08Z
2022-07-25T14:24:23Z,42.805,6.029,13.3009,4.60044,2470.6,2022-7-25T16:26:11Z
2022-07-25T14:27:27Z,42.805,6.029,13.3005,4.60043,2470.577,2022-7-25T16:29:14Z
2022-07-25T14:30:30Z,42.805,6.029,13.3008,4.60043,2470.591,2022-7-25T16:32:17Z
2022-07-25T14:33:33Z,42.805,6.029,13.3009,4.60042,2470.577,2022-7-25T16:35:20Z
2022-07-25T14:36:36Z,42.805,6.029,13.3008,4.60040,2470.591,2022-7-25T16:38:23Z
2022-07-25T14:39:39Z,42.805,6.029,13.3004,4.60042,2470.577,2022-7-25T16:41:26Z
2022-07-25T14:42:42Z,42.805,6.029,13.3007,4.60042,2470.637,2022-7-25T16:44:30Z
2022-07-25T14:45:45Z,42.805,6.029,13.3006,4.60041,2470.577,2022-7-25T16:47:33Z
2022-07-25T14:48:48Z,42.805,6.029,13.3009,4.60042,2470.577,2022-7-25T16:50:36Z
2022-07-25T14:51:52Z,42.805,6.029,13.3006,4.60041,2470.6,2022-7-25T16:53:39Z
2022-07-25T14:54:55Z,42.805,6.029,13.3004,4.60041,2470.6,2022-7-25T16:56:42Z
2022-07-25T14:57:58Z,42.805,6.029,13.3004,4.60041,2470.6,2022-7-25T16:59:45Z
2022-07-25T15:01:01Z,42.805,6.029,13.3007,4.60042,2470.624,2022-7-25T17:02:48Z
2022-07-25T15:04:04Z,42.805,6.029,13.3007,4.60044,2470.6,2022-7-25T17:05:51Z
2022-07-25T15:07:07Z,42.805,6.029,13.3006,4.60043,2470.6,2022-7-25T17:08:55Z
2022-07-25T15:10:10Z,42.805,6.029,13.3008,4.60045,2470.6,2022-7-25T17:11:58Z
2022-07-25T15:13:13Z,42.805,6.029,13.3004,4.60041,2470.591,2022-7-25T17:15:01Z